TimeCDT,TemperatureF,Dew PointF,Humidity,Sea Level PressureIn,VisibilityMPH,Wind Direction,Wind SpeedMPH,Gust SpeedMPH,PrecipitationIn,Events,Conditions,WindDirDegrees,DateUTC
12:53 AM,73.9,70.0,87,30.00,10.0,South,5.8,-,N/A,,Mostly Cloudy,170,2013-10-05 05:53:00
1:53 AM,75.0,70.0,84,30.00,10.0,South,4.6,-,N/A,,Overcast,180,2013-10-05 06:53:00
2:53 AM,73.9,70.0,87,29.99,9.0,South,4.6,-,N/A,,Scattered Clouds,170,2013-10-05 07:53:00
3:49 AM,73.4,69.8,88,30.00,2.5,SSW,6.9,-,0.05,Rain,Rain,210,2013-10-05 08:49:00
3:53 AM,73.9,71.1,91,29.99,4.0,SSW,5.8,-,0.05,Rain,Light Rain,210,2013-10-05 08:53:00
4:13 AM,73.4,71.6,94,30.01,1.8,SW,6.9,-,0.09,Rain,Heavy Rain,230,2013-10-05 09:13:00
4:26 AM,73.4,69.8,88,29.99,3.0,SSE,4.6,-,0.21,Rain,Light Rain,160,2013-10-05 09:26:00
4:53 AM,73.9,71.1,91,29.99,1.2,SSW,9.2,-,0.30,Rain,Heavy Rain,200,2013-10-05 09:53:00
5:15 AM,73.4,71.6,94,30.00,3.0,SSW,5.8,-,0.28,Rain,Light Rain,200,2013-10-05 10:15:00
5:38 AM,73.4,69.8,88,30.00,1.5,SW,4.6,-,0.32,Rain,Heavy Rain,220,2013-10-05 10:38:00
5:50 AM,73.4,71.6,94,29.99,3.0,SE,5.8,-,0.52,Rain,Rain,130,2013-10-05 10:50:00
5:53 AM,73.0,71.1,93,29.98,4.0,SE,4.6,-,0.52,Rain,Light Rain,130,2013-10-05 10:53:00
6:53 AM,73.0,70.0,90,29.98,7.0,South,4.6,-,0.00,,Overcast,170,2013-10-05 11:53:00
7:53 AM,73.9,71.1,91,29.98,7.0,South,6.9,-,N/A,,Mostly Cloudy,190,2013-10-05 12:53:00
8:43 AM,73.4,71.6,94,30.01,4.0,SSW,3.5,-,0.01,Rain,Light Rain,210,2013-10-05 13:43:00
8:53 AM,75.0,71.1,87,30.00,7.0,SW,3.5,-,0.01,,Overcast,230,2013-10-05 13:53:00
9:10 AM,75.2,71.6,89,30.01,7.0,SW,4.6,-,0.00,,Overcast,230,2013-10-05 14:10:00
9:53 AM,75.9,72.0,87,30.00,8.0,SW,5.8,-,0.00,,Mostly Cloudy,220,2013-10-05 14:53:00
10:53 AM,78.1,72.0,81,30.00,10.0,South,4.6,-,0.00,,Mostly Cloudy,190,2013-10-05 15:53:00
11:53 AM,75.9,70.0,82,30.00,4.0,SSW,8.1,-,0.03,Rain,Light Rain,210,2013-10-05 16:53:00
12:53 PM,79.0,70.0,74,29.97,10.0,SSW,10.4,-,0.00,,Partly Cloudy,200,2013-10-05 17:53:00
1:53 PM,82.0,71.1,69,29.92,10.0,South,6.9,17.3,N/A,,Mostly Cloudy,180,2013-10-05 18:53:00
2:53 PM,81.0,69.1,67,29.91,10.0,SSW,9.2,21.9,N/A,,Overcast,210,2013-10-05 19:53:00
3:53 PM,80.1,68.0,67,29.91,10.0,SSW,5.8,-,N/A,,Overcast,200,2013-10-05 20:53:00
4:53 PM,75.0,71.1,87,29.91,8.0,Calm,Calm,-,0.03,Rain,Light Rain,0,2013-10-05 21:53:00
5:15 PM,75.2,71.6,89,29.93,9.0,NW,3.5,-,0.00,Thunderstorm,Thunderstorm,320,2013-10-05 22:15:00
5:53 PM,73.0,68.0,84,29.91,10.0,Variable,4.6,-,0.00,Thunderstorm,Thunderstorm,0,2013-10-05 22:53:00
6:53 PM,71.1,68.0,90,29.88,10.0,Calm,Calm,-,0.04,Rain,Light Rain,0,2013-10-05 23:53:00
7:53 PM,71.1,69.1,93,29.87,10.0,ESE,4.6,-,0.00,Rain,Light Rain,120,2013-10-06 00:53:00
8:23 PM,71.6,68.0,88,29.87,10.0,Calm,Calm,-,0.00,Thunderstorm,Thunderstorm,0,2013-10-06 01:23:00
8:53 PM,71.1,69.1,93,29.85,10.0,ESE,3.5,-,0.00,Thunderstorm,Thunderstorm,110,2013-10-06 01:53:00
9:26 PM,71.6,69.8,94,29.88,10.0,NW,8.1,-,N/A,Thunderstorm,Thunderstorm,320,2013-10-06 02:26:00
9:35 PM,71.6,69.8,94,29.90,1.5,WNW,20.7,32.2,0.01,Rain-Thunderstorm,Light Thunderstorms and Rain,290,2013-10-06 02:35:00
9:43 PM,69.8,68.0,94,29.90,0.2,West,16.1,32.2,0.64,Fog-Rain-Thunderstorm,Heavy Thunderstorms and Rain,270,2013-10-06 02:43:00
9:50 PM,69.8,66.2,88,29.91,0.5,WSW,6.9,25.3,1.10,Fog-Rain-Thunderstorm,Heavy Thunderstorms and Rain,240,2013-10-06 02:50:00
9:51 PM,69.1,66.9,93,29.89,0.5,WSW,8.1,25.3,1.13,Fog-Rain-Thunderstorm,Heavy Thunderstorms and Rain,240,2013-10-06 02:51:00
10:07 PM,68.0,66.2,94,29.89,0.8,Variable,3.5,-,0.54,Rain-Thunderstorm,Heavy Thunderstorms and Rain,0,2013-10-06 03:07:00
10:27 PM,68.0,66.2,94,29.89,1.0,South,4.6,-,0.90,Rain-Thunderstorm,Heavy Thunderstorms and Rain,190,2013-10-06 03:27:00
10:39 PM,68.0,66.2,94,29.88,0.8,WNW,3.5,-,1.13,Rain-Thunderstorm,Heavy Thunderstorms and Rain,300,2013-10-06 03:39:00
10:48 PM,68.0,66.2,94,29.88,1.2,Calm,Calm,-,1.24,Rain-Thunderstorm,Heavy Thunderstorms and Rain,0,2013-10-06 03:48:00
10:53 PM,68.0,66.0,93,29.87,2.0,Calm,Calm,-,1.30,Rain-Thunderstorm,Heavy Thunderstorms and Rain,0,2013-10-06 03:53:00
10:58 PM,69.8,66.2,88,29.88,3.0,SE,3.5,-,0.03,Rain-Thunderstorm,Heavy Thunderstorms and Rain,140,2013-10-06 03:58:00
11:14 PM,69.8,66.2,88,29.88,1.8,WSW,6.9,-,0.13,Rain,Heavy Rain,240,2013-10-06 04:14:00
11:21 PM,69.8,66.2,88,29.88,1.8,South,4.6,-,0.23,Rain-Thunderstorm,Heavy Rain,180,2013-10-06 04:21:00
11:25 PM,69.8,66.2,88,29.88,3.0,South,3.5,-,0.23,Rain-Thunderstorm,Light Rain,180,2013-10-06 04:25:00
11:36 PM,69.8,66.2,88,29.86,10.0,SSE,4.6,-,0.24,Rain,Light Rain,150,2013-10-06 04:36:00
11:53 PM,70.0,66.9,90,29.86,4.0,SW,5.8,-,0.25,Rain,Rain,220,2013-10-06 04:53:00
11:59 PM,69.8,66.2,88,29.87,2.5,WSW,5.8,-,0.03,Rain-Thunderstorm,Rain,250,2013-10-06 04:59:00